Погода в Лез-Арке

Франция     45°29′53″N   4°32′51″E
темп.,
°C
ветер,
м/с
пор.,
м/с
влажн.,
%
обл.,
%
осадки,
мм/ч
давл.,
гПа
погр.,
м
18 апреля, вс
вс1823:00+1з339515 0.0 102050
02:00−1зюз339727 0.0 102161
05:00−1зюз349757 0.0 102165
08:000з239389 0.0 1022134
11:00+3з2495100 0.3 1021379
14:00+5сз3582100 0.5 1021798
17:00+6ссз3680100 0.1 1020872
20:00+5сз3681100 0.3 1020381
19 апреля, пн
пн1923:00+3з229399 0.0 102265
02:00+1з229682 0.0 102248
05:00+2зюз2295100 0.0 102185
08:00+3з2295100 0.1 1021127
11:00+6ссз237785 0.1 1020867
14:00+9с3455100 0.3 10191636
17:00+9с2356100 0.0 10171275
20:00+7зсз117318 0.1 101813
20 апреля, вт
вт2023:00+2юз22905 0.0 101921
02:00+1юз22925 0.0 101932
05:000зюз22935 0.0 101825
08:00+2зюз22841 0.0 101865
11:00+10ссз22581 0.0 1016776
14:00+13св224615 0.0 10151756
17:00+13всв4345100 0.0 10131613
20:00+9ююз2270100 0.1 101442
21 апреля, ср
ср2123:00+5юз2390100 0.2 101761
02:00+5зюз228598 0.3 101733
05:00+3юз229378 0.1 101715
08:00+5з118645 0.1 101752
11:00+11в126687 0.1 1017944
14:00+13юв225378 0.6 10161474
17:00+13вюв325443 0.1 10151291
20:00+9вюв227714 0.1 101627
22 апреля, чт
чт2223:00+5ююз22915 0.0 101916
02:00+4ююз22895 0.0 102022
05:00+3юз229010 0.0 102014
08:00+6юз117926 0.0 102151
11:00+12всв23585 0.0 1020997
14:00+15всв44514 0.0 10201485
17:00+15всв435344 0.0 10191503
20:00+11юв117129 0.0 102012